Flag for Jamaica Weather past 2 weeks in May Pen, Jamaica

Now
82 °F

Passing clouds.


Feels Like: 89 °F
Forecast: 74 / 92 °F
Wind: 8 mph from North

Location: Kingston / Norman Manley

Current Time: Oct 2, 2014 at 1:35:54 AM

Latest Report: Oct 2, 2014 at 1:00 AM


Visibility: N/A

Pressure: 29.95 "Hg

Humidity: 79%

Dew point: 75 °F

Location of May PenLocation

Historic Weather in May Pen — Graph

°F

May Pen temperature yesterday

Maximum temperature yesterday: 91 °F (at 1:00 PM)
Minimum temperature yesterday: 81 °F (at 4:00 AM)
Average temperature yesterday: 86 °F

Past Weeks' High & Low Weather Summary

 TemperatureHumidityPressure
High91 °F (Oct 1, 1:00 PM)89% (Sep 20, 7:00 AM)29.98 "Hg (Sep 20, 7:00 AM)
Low77 °F (Sep 28, 8:00 PM)52% (Sep 25, 3:00 PM)29.80 "Hg (Sep 26, 4:00 PM)
Average84 °F75%29.89 "Hg
* Reported Midnight between Sep 16 and Sep 17 — Midnight between Oct 1 and Oct 2, May Pen, Weather by CustomWeather, © 2014

Note: Actual official high and low records may vary slightly from our data, if they occured in-between our weather recording intervals... More about our weather records

Advertising

May Pen weather history for previous 24 hours

 ConditionsComfort  
Time TempWeatherWind HumidityBarometerVisibility
12:00 AM
Oct 2
82 °FPassing clouds.9 mph79%29.95 "HgN/A
11:00 PM
Oct 1
84 °FPassing clouds.6 mph74%29.95 "HgN/A
10:00 PM84 °FPassing clouds.6 mph74%29.95 "HgN/A
9:00 PM84 °FPassing clouds.7 mph74%29.95 "HgN/A
8:00 PM86 °FPassing clouds.17 mph70%29.92 "HgN/A
7:00 PM86 °FPassing clouds.18 mph75%29.89 "HgN/A
6:00 PM86 °FPassing clouds.23 mph75%29.89 "HgN/A
5:00 PM88 °FPassing clouds.23 mph66%29.86 "HgN/A
4:00 PM90 °FPassing clouds.22 mph67%29.86 "HgN/A
3:00 PM90 °FPassing clouds.23 mph67%29.86 "HgN/A
2:00 PM90 °FPassing clouds.25 mph67%29.86 "HgN/A
1:00 PM91 °FPassing clouds.22 mph67%29.89 "HgN/A
12:00 PM90 °FPassing clouds.23 mph67%29.92 "HgN/A
11:00 AM88 °FPassing clouds.22 mph70%29.95 "HgN/A
10:00 AM90 °FPassing clouds.21 mph67%29.95 "HgN/A
9:00 AM88 °FPassing clouds.18 mph66%29.95 "HgN/A
8:00 AM86 °FPassing clouds.16 mph70%29.92 "HgN/A
7:00 AM81 °FPassing clouds.5 mph84%29.92 "HgN/A
6:00 AM82 °FPassing clouds.8 mph74%29.92 "HgN/A
5:00 AM81 °FPassing clouds.8 mph84%29.92 "HgN/A
4:00 AM81 °FPassing clouds.12 mph79%29.89 "HgN/A
3:00 AM82 °FPassing clouds.13 mph79%29.89 "HgN/A
2:00 AM84 °FPassing clouds.13 mph74%29.89 "HgN/A
1:00 AM84 °FPassing clouds.13 mph74%29.89 "HgN/A
Weather by CustomWeather, © 2014

See weather overviewHow to use our weather pages